一网星座-0191星 (ONEWEB-0191 )

导读 | 豆包AI

ONEWEB-0191是英国OneWeb公司的低轨互联网卫星,于2021年4月25日发射,属于OneWeb全球卫星互联网星座的组成部分。OneWeb是全球第二大低轨卫星星座运营商,该星座旨在为全球提供高速、低延迟的宽带互联网服务,覆盖包括偏远地区在内的全球各类用户,支持企业、政府等多类客户的通信需求,ONEWEB-0191的入轨提升了星座的服务覆盖能力与冗余性。

Basic Information
目录编号:
48239
目录名称:
ONEWEB-0191
国际标识:
2021-031AF
轨道中心:
EARTH
卫星名称:
一网星座-0191星
卫星全名:
一网星座-0191星 (ONEWEB-0191 )
卫星状态:
在轨 (已飞行1784 天)
发射日期:
2021-04-25 UTC
国别 :
英国 (GB)
星等 :
--
Orbit Information
数据来源 国际轨道数据 AOE轨道数据
星历时间 2026-03-14T06:24:09+0800
11小时前
查看轨道信息
2026-03-10T01:00:00+0800
4天前
查看轨道信息
半长轴 7583.927km 7583.934km
偏心率 0.0001548 0.0001554
轨道倾角 87.898° 87.899°
近地点辐角 80.908° 81.752°
升交点赤经 308.703° 309.543°
平近点角 279.223° 95.700°
近地点 1204.616km 1204.618km
远地点 1206.964km 1206.976km
周期 109.547分钟 109.547分钟
每日圈数 13.14503 13.145013
Detailed Information
平衡模式:
三轴稳定
覆盖范围:
全球
运营商:
一网卫星公司
运营商所在国:
英国
制造商(研发单位):
一网卫星公司
制造商所在国:
英国
使用方式:
暂无
Satellite Introduction
OneWeb卫星网络由648颗重约125公斤的微型卫星组成,运行在1200公里的轨道上。 每颗卫星都能够提供至少每秒8千兆位的吞吐量,以使用其高吞吐量的Ku频段有效载荷为家庭和移动平台提供互联网接入。该卫星仍在工作。
2D Orbit Map
3D Orbit Map
Orbit Altitude Analysis Chart
Orbit Inclination Analysis Chart
Orbit Comprehensive Analysis Chart
View Comprehensive Chart